[[{"header":{"parameterUnit":"m.s-1","parameterCategory":1,"la1":30.2992,"la2":30.254,"lo1":-89.0895,"lo2":-89.0443,"dy":0.0025,"dx":0.0025,"nx":19,"ny":19,"refTime":"2026-03-09T09:00:00:Z","depth":0,"parameterNumber":2,"parameterNumberName":"U-component_of_WINDS"},"data":[0,0,0,-1.5822,-1.5823,-1.5887,-1.5887,-1.5969,-1.597,0,0,0,0,0,0,0,0,0,0,0,-1.5802,-1.5802,-1.5821,-1.5823,-1.5887,-1.5887,-1.5969,-1.597,0,0,0,0,0,0,0,0,0,0,0,-1.5802,-1.5802,-1.5803,-1.5823,-1.5887,-1.5887,-1.5969,-1.5921,0,0,0,0,0,0,0,0,0,0,-1.5859,-1.584,-1.5802,-1.5803,-1.5824,-1.5887,-1.5887,-1.5918,-1.5924,-1.594,0,-1.5953,0,-1.5963,-1.5975,-1.5976,0,0,0,-1.5824,-1.5835,-1.5853,-1.5803,-1.5824,-1.5887,-1.5858,-1.5921,-1.5927,-1.5947,-1.5955,-1.5958,-1.5964,-1.5976,-1.5976,-1.6064,-1.6064,0,0,-1.582,-1.5813,-1.5849,-1.5857,-1.5846,-1.5856,-1.586,-1.5925,-1.5933,-1.5955,-1.596,-1.5966,-1.5976,-1.5977,-1.6064,-1.6064,0,0,0,-1.581,-1.5811,-1.5827,-1.5853,-1.5865,-1.5858,-1.5863,-1.593,-1.5936,-1.596,-1.5966,-1.5977,-1.5978,-1.6063,-1.6064,-1.6074,0,0,0,-1.5808,-1.5804,-1.5825,-1.5822,-1.5864,-1.5898,-1.5866,-1.5932,-1.5939,-1.5966,-1.5977,-1.5979,-1.6063,-1.6064,-1.6073,-1.6079,0,0,0,-1.5798,-1.5803,-1.5812,-1.5821,-1.5848,-1.5897,-1.5907,-1.5933,-1.5943,-1.5976,-1.5979,-1.6063,-1.6064,-1.6072,-1.6078,-1.6099,0,0,0,-1.5786,-1.5821,-1.5812,-1.5854,-1.5847,-1.5903,-1.5906,-1.5948,-1.5978,-1.5977,-1.6063,-1.6064,-1.6071,-1.6077,-1.6098,-1.6115,-1.6122,0,0,-1.5826,-1.5826,-1.5851,-1.5845,-1.5899,-1.5894,-1.595,-1.5985,-1.5996,-1.6041,-1.6043,-1.6073,-1.6078,-1.6099,-1.6164,-1.6169,0,0,0,-1.5861,-1.5879,-1.5895,-1.5922,-1.5948,-1.5972,-1.5998,-1.6011,-1.605,-1.6017,-1.6088,-1.6091,-1.6104,-1.6112,-1.6117,-1.6128,-1.6068,-1.6068,-1.6068,-1.5907,-1.5917,-1.5959,-1.5978,-1.6004,-1.6031,-1.6053,-1.6075,-1.608,-1.6096,-1.6109,-1.6147,-1.6157,-1.616,-1.6172,-1.612,-1.612,-1.612,-1.612,-1.5965,-1.5992,-1.5996,-1.6038,-1.6049,-1.6085,-1.6113,-1.6115,-1.615,-1.6138,-1.615,-1.6135,-1.6166,-1.6176,-1.6121,-1.6121,-1.6121,-1.6121,-1.6121,-1.5996,-1.601,-1.6025,-1.6064,-1.6094,-1.6112,-1.6146,-1.6156,-1.6166,-1.6178,-1.6192,-1.6192,-1.6192,-1.6184,-1.6184,-1.6184,-1.6185,-1.6185,-1.6185,-1.6021,-1.6037,-1.6063,-1.6094,-1.6112,-1.6138,-1.6165,-1.6184,-1.6208,-1.6213,-1.6213,-1.6215,-1.6167,-1.6154,-1.6187,-1.6186,-1.6186,-1.6186,-1.6186,-1.6074,-1.6064,-1.6104,-1.6122,-1.6159,-1.6188,-1.6201,-1.6238,-1.6255,-1.6272,-1.6272,-1.6235,-1.6235,-1.6232,-1.6221,-1.6269,-1.6269,-1.6269,-1.6269,-1.6099,-1.61,-1.6143,-1.6171,-1.6201,-1.6216,-1.6262,-1.6284,-1.6306,-1.6318,-1.6312,-1.6299,-1.6296,-1.6298,-1.6293,-1.6283,-1.6347,-1.6347,-1.6347,-1.6132,-1.6136,-1.6173,-1.6192,-1.6222,-1.6248,-1.6291,-1.6325,-1.6347,-1.635,-1.6327,-1.6323,-1.6303,-1.6295,-1.6296,-1.6289,-1.6271,0,0]},{"header":{"parameterUnit":"m.s-1","parameterCategory":1,"la1":30.2992,"la2":30.254,"lo1":-89.0895,"lo2":-89.0443,"dy":0.0025,"dx":0.0025,"nx":19,"ny":19,"refTime":"2026-03-09T09:00:00:Z","depth":0,"parameterNumber":3,"parameterNumberName":"V-component_of_WINDS"},"data":[0,0,0,0.6104,0.6104,0.6098,0.6098,0.6101,0.6101,0,0,0,0,0,0,0,0,0,0,0,0.6111,0.6111,0.6104,0.6104,0.6098,0.6097,0.6101,0.6101,0,0,0,0,0,0,0,0,0,0,0,0.6111,0.6111,0.6112,0.6104,0.6098,0.6097,0.6101,0.6102,0,0,0,0,0,0,0,0,0,0,0.6107,0.6118,0.6111,0.6112,0.6104,0.6098,0.6097,0.6102,0.6102,0.6109,0,0.6114,0,0.6108,0.6102,0.6102,0,0,0,0.6101,0.6118,0.6111,0.6112,0.6104,0.6098,0.61,0.6102,0.6102,0.6109,0.6114,0.6114,0.6108,0.6102,0.6102,0.6147,0.6148,0,0,0.6101,0.6113,0.6111,0.6112,0.6111,0.61,0.6099,0.6102,0.6109,0.6114,0.6114,0.6108,0.6102,0.6103,0.6147,0.6148,0,0,0,0.6105,0.6114,0.6107,0.6112,0.6109,0.61,0.6099,0.6109,0.6106,0.6114,0.6108,0.6103,0.6103,0.6147,0.6147,0.6177,0,0,0,0.6105,0.6115,0.6107,0.6114,0.611,0.6109,0.6106,0.6105,0.6105,0.6108,0.6103,0.6103,0.6146,0.6147,0.6175,0.6189,0,0,0,0.611,0.6116,0.6117,0.6115,0.6112,0.6108,0.6105,0.6105,0.6102,0.6102,0.6103,0.6146,0.6147,0.6173,0.6186,0.6205,0,0,0,0.612,0.6143,0.6117,0.6141,0.6113,0.6126,0.6105,0.6114,0.6118,0.6103,0.6146,0.6147,0.6173,0.6185,0.6203,0.6223,0.6232,0,0,0.6155,0.6147,0.6161,0.6138,0.6158,0.6126,0.6152,0.6145,0.6135,0.6145,0.6145,0.6176,0.6186,0.6204,0.6277,0.6285,0,0,0,0.6176,0.6186,0.6189,0.6192,0.6187,0.6184,0.6172,0.617,0.6177,0.6141,0.6187,0.6193,0.6203,0.6212,0.6218,0.6227,0.6152,0.6152,0.6151,0.6244,0.6229,0.6251,0.6236,0.6241,0.6228,0.6231,0.6227,0.6211,0.6222,0.6225,0.6271,0.6281,0.6286,0.6295,0.6234,0.6234,0.6234,0.6234,0.6295,0.6308,0.6287,0.63,0.6286,0.6299,0.6289,0.6278,0.6289,0.6267,0.6275,0.6253,0.6294,0.6302,0.6236,0.6236,0.6235,0.6235,0.6235,0.6338,0.6342,0.6338,0.6343,0.635,0.6335,0.6347,0.6333,0.6321,0.633,0.6332,0.6332,0.633,0.6332,0.6332,0.6332,0.6332,0.6332,0.6333,0.6384,0.6379,0.6389,0.6387,0.6389,0.639,0.638,0.6382,0.6381,0.6371,0.6371,0.6356,0.63,0.6287,0.6335,0.6334,0.6334,0.6334,0.6334,0.6442,0.6427,0.6443,0.6445,0.6443,0.6451,0.6435,0.6441,0.6441,0.6448,0.6431,0.6392,0.6383,0.6378,0.6367,0.6433,0.6433,0.6433,0.6433,0.6479,0.6473,0.6487,0.6492,0.6495,0.6482,0.6503,0.6497,0.6488,0.6488,0.6477,0.6461,0.6457,0.6451,0.6444,0.6434,0.6515,0.6515,0.6515,0.6515,0.6509,0.6528,0.6518,0.6516,0.6516,0.6536,0.6544,0.6531,0.6518,0.6488,0.6485,0.6459,0.6452,0.6437,0.6427,0.6408,0,0]}]]